2021-07-11 00:05:29 r, 20.95m,0000000000Hz,0001288022c,0000002.795s, 032.8C,00002191
2021-07-11 00:15:30 r, 20.97m,0000000001Hz,0001313587c,0000002.851s, 032.8C,00002191
2021-07-11 00:25:29 r, 20.98m,0000000001Hz,0001325832c,0000002.877s, 032.5C,00002191
2021-07-11 00:35:30 r, 21.00m,0000000001Hz,0001344854c,0000002.919s, 032.5C,00002191
2021-07-11 00:45:29 r, 21.02m,0000000000Hz,0001377268c,0000002.989s, 032.2C,00002191
2021-07-11 00:55:29 r, 21.01m,0000000000Hz,0001364918c,0000002.962s, 032.2C,00002191
2021-07-11 01:05:29 r, 21.04m,0000000000Hz,0001400143c,0000003.039s, 031.9C,00002191
2021-07-11 01:15:31 r, 21.06m,0000000000Hz,0001426559c,0000003.096s, 031.9C,00002191
2021-07-11 01:25:29 r, 21.05m,0000000000Hz,0001410911c,0000003.062s, 031.5C,00002191
2021-07-11 01:35:32 r, 21.04m,0000000000Hz,0001404251c,0000003.047s, 031.5C,00002191
2021-07-11 01:45:29 r, 21.04m,0000000001Hz,0001405780c,0000003.051s, 031.5C,00002191
2021-07-11 01:55:29 r, 21.04m,0000000000Hz,0001403725c,0000003.046s, 031.2C,00002191
2021-07-11 02:05:31 r, 21.05m,0000000000Hz,0001417444c,0000003.076s, 030.9C,00002191
2021-07-11 02:15:30 r, 21.05m,0000000001Hz,0001422416c,0000003.087s, 030.6C,00002191
2021-07-11 02:25:29 r, 21.05m,0000000000Hz,0001422718c,0000003.087s, 030.2C,00002191
2021-07-11 02:35:29 r, 21.05m,0000000000Hz,0001429141c,0000003.101s, 030.2C,00002191
2021-07-11 02:45:30 r, 21.04m,0000000000Hz,0001412689c,0000003.066s, 029.9C,00002191
2021-07-11 02:55:29 r, 21.02m,0000000000Hz,0001383136c,0000003.002s, 029.6C,00002191
2021-07-11 03:05:30 r, 20.97m,0000000000Hz,0001328238c,0000002.882s, 029.6C,00002191
2021-07-11 03:15:30 r, 20.91m,0000000000Hz,0001258550c,0000002.731s, 029.3C,00002191
2021-07-11 03:25:29 r, 20.81m,0000000000Hz,0001143684c,0000002.482s, 029.3C,00002191
2021-07-11 03:35:31 r, 20.63m,0000000001Hz,0000963505c,0000002.091s, 029.3C,00002191
2021-07-11 03:45:29 r, 20.29m,0000000001Hz,0000715955c,0000001.554s, 029.3C,00002191
2021-07-11 03:55:29 r, 19.79m,0000000001Hz,0000450133c,0000000.977s, 029.3C,00002191
2021-07-11 04:05:31 r, 19.11m,0000000002Hz,0000239924c,0000000.521s, 029.0C,00002191
2021-07-11 04:15:30 r, 18.26m,0000000004Hz,0000110384c,0000000.240s, 029.0C,00002191
2021-07-11 04:25:29 r, 17.26m,0000000011Hz,0000043906c,0000000.095s, 029.0C,00002191
2021-07-11 04:35:30 r, 16.06m,0000000032Hz,0000014583c,0000000.032s, 029.3C,00002191
2021-07-11 04:45:30 r, 14.63m,0000000117Hz,0000003912c,0000000.008s, 029.3C,00002191
2021-07-11 04:55:29 r, 13.14m,0000000468Hz,0000000000c,0000000.000s, 029.3C,00002191
2021-07-11 05:05:30 r, 11.65m,0000001846Hz,0000000000c,0000000.000s, 029.0C,00002191
2021-07-11 05:15:30 r, 10.19m,0000007080Hz,0000000000c,0000000.000s, 028.6C,00002191
2021-07-11 05:25:29 r, 08.95m,0000022284Hz,0000000000c,0000000.000s, 028.6C,00002191
2021-07-11 05:35:29 r, 07.98m,0000054468Hz,0000000000c,0000000.000s, 028.3C,00002191
2021-07-11 05:45:31 r, 07.24m,0000107571Hz,0000000000c,0000000.000s, 028.3C,00002191
2021-07-11 05:55:29 r, 06.70m,0000176936Hz,0000000000c,0000000.000s, 028.3C,00002191
2021-07-11 06:05:31 r, 06.41m,0000230390Hz,0000000000c,0000000.000s, 028.3C,00002191
2021-07-11 06:15:30 r, 06.08m,0000311852Hz,0000000000c,0000000.000s, 028.3C,00002191
2021-07-11 06:25:29 r, 05.82m,0000396718Hz,0000000000c,0000000.000s, 028.6C,00002191
2021-07-11 06:35:31 r, 00.00m,0000493232Hz,0000000000c,0000000.000s, 029.0C,00002191
2021-07-11 06:45:30 r, 00.00m,0000596256Hz,0000000000c,0000000.000s, 029.0C,00002191
2021-07-11 06:55:29 r, 00.00m,0000596214Hz,0000000000c,0000000.000s, 029.6C,00002191
2021-07-11 07:05:30 r, 00.00m,0000596132Hz,0000000000c,0000000.000s, 029.6C,00002191
2021-07-11 07:15:31 r, 00.00m,0000596072Hz,0000000000c,0000000.000s, 030.2C,00002191
2021-07-11 07:25:29 r, 00.00m,0000595982Hz,0000000000c,0000000.000s, 030.6C,00002191
2021-07-11 07:35:30 r, 00.00m,0000595916Hz,0000000000c,0000000.000s, 031.9C,00002191
2021-07-11 07:45:30 r, 00.00m,0000595800Hz,0000000000c,0000000.000s, 033.1C,00002191
2021-07-11 07:55:29 r, 00.00m,0000595700Hz,0000000000c,0000000.000s, 034.4C,00002191
2021-07-11 08:05:31 r, 00.00m,0000595490Hz,0000000000c,0000000.000s, 036.0C,00002191
2021-07-11 08:15:30 r, 00.00m,0000595402Hz,0000000000c,0000000.000s, 036.7C,00002191
2021-07-11 08:25:29 r, 00.00m,0000595197Hz,0000000000c,0000000.000s, 037.7C,00002191
2021-07-11 08:35:31 r, 00.00m,0000595178Hz,0000000000c,0000000.000s, 038.6C,00002191
2021-07-11 08:45:30 r, 00.00m,0000595066Hz,0000000000c,0000000.000s, 039.3C,00002191
2021-07-11 08:55:29 r, 00.00m,0000594933Hz,0000000000c,0000000.000s, 040.2C,00002191
2021-07-11 09:05:30 r, 00.00m,0000594826Hz,0000000000c,0000000.000s, 041.5C,00002191
2021-07-11 09:15:30 r, 00.00m,0000594553Hz,0000000000c,0000000.000s, 042.8C,00002191
2021-07-11 09:25:29 r, 00.00m,0000594315Hz,0000000000c,0000000.000s, 044.4C,00002191
2021-07-11 09:35:30 r, 00.00m,0000594169Hz,0000000000c,0000000.000s, 045.4C,00002191
2021-07-11 09:45:30 r, 00.00m,0000594045Hz,0000000000c,0000000.000s, 046.7C,00002191
2021-07-11 09:55:29 r, 00.00m,0000593850Hz,0000000000c,0000000.000s, 047.7C,00002191
2021-07-11 10:05:30 r, 00.00m,0000593720Hz,0000000000c,0000000.000s, 048.6C,00002191
2021-07-11 10:15:31 r, 00.00m,0000593558Hz,0000000000c,0000000.000s, 049.6C,00002191
2021-07-11 10:25:29 r, 00.00m,0000593392Hz,0000000000c,0000000.000s, 050.6C,00002191
2021-07-11 10:35:31 r, 00.00m,0000593249Hz,0000000000c,0000000.000s, 051.5C,00002191
2021-07-11 10:45:30 r, 00.00m,0000593210Hz,0000000000c,0000000.000s, 052.2C,00002191
2021-07-11 10:55:29 r, 00.00m,0000593028Hz,0000000000c,0000000.000s, 052.8C,00002191
2021-07-11 11:05:30 r, 00.00m,0000593060Hz,0000000000c,0000000.000s, 053.1C,00002191
2021-07-11 11:15:31 r, 00.00m,0000593385Hz,0000000000c,0000000.000s, 051.5C,00002191
2021-07-11 11:25:29 r, 00.00m,0000593498Hz,0000000000c,0000000.000s, 050.2C,00002191
2021-07-11 11:35:30 r, 00.00m,0000593092Hz,0000000000c,0000000.000s, 052.2C,00002191
2021-07-11 11:45:30 r, 00.00m,0000592749Hz,0000000000c,0000000.000s, 053.8C,00002191
2021-07-11 11:55:29 r, 00.00m,0000592521Hz,0000000000c,0000000.000s, 055.4C,00002191
2021-07-11 12:05:30 r, 00.00m,0000592485Hz,0000000000c,0000000.000s, 056.0C,00002191
2021-07-11 12:15:32 r, 00.00m,0000592435Hz,0000000000c,0000000.000s, 056.4C,00002191
2021-07-11 12:25:29 r, 00.00m,0000592631Hz,0000000000c,0000000.000s, 055.7C,00002191
2021-07-11 12:35:29 r, 00.00m,0000592963Hz,0000000000c,0000000.000s, 053.5C,00002191
2021-07-11 12:45:30 r, 00.00m,0000592882Hz,0000000000c,0000000.000s, 053.5C,00002191
2021-07-11 12:55:29 r, 00.00m,0000592877Hz,0000000000c,0000000.000s, 053.5C,00002191
2021-07-11 13:05:29 r, 00.00m,0000592552Hz,0000000000c,0000000.000s, 055.4C,00002191
2021-07-11 13:15:31 r, 00.00m,0000592276Hz,0000000000c,0000000.000s, 056.7C,00002191
2021-07-11 13:25:29 r, 00.00m,0000592097Hz,0000000000c,0000000.000s, 057.6C,00002191
2021-07-11 13:35:29 r, 00.00m,0000592008Hz,0000000000c,0000000.000s, 058.3C,00002191
2021-07-11 13:45:32 r, 00.00m,0000591978Hz,0000000000c,0000000.000s, 058.6C,00002191
2021-07-11 13:55:29 r, 00.00m,0000592011Hz,0000000000c,0000000.000s, 058.9C,00002191
2021-07-11 14:05:29 r, 00.00m,0000591754Hz,0000000000c,0000000.000s, 059.6C,00002191
2021-07-11 14:15:32 r, 00.00m,0000592273Hz,0000000000c,0000000.000s, 058.0C,00002191
2021-07-11 14:25:29 r, 00.00m,0000591929Hz,0000000000c,0000000.000s, 059.3C,00002191
2021-07-11 14:35:29 r, 00.00m,0000592186Hz,0000000000c,0000000.000s, 058.9C,00002191
2021-07-11 14:45:30 r, 00.00m,0000592918Hz,0000000000c,0000000.000s, 054.7C,00002191
2021-07-11 14:55:32 r, 00.00m,0000593160Hz,0000000000c,0000000.000s, 052.8C,00002191
2021-07-11 15:05:29 r, 00.00m,0000592614Hz,0000000000c,0000000.000s, 055.1C,00002191
2021-07-11 15:15:31 r, 00.00m,0000592431Hz,0000000000c,0000000.000s, 056.7C,00002191
2021-07-11 15:25:30 r, 00.00m,0000593051Hz,0000000000c,0000000.000s, 053.5C,00002191
2021-07-11 15:35:29 r, 00.00m,0000593317Hz,0000000000c,0000000.000s, 051.5C,00002191
2021-07-11 15:45:32 r, 00.00m,0000593451Hz,0000000000c,0000000.000s, 050.6C,00002191
2021-07-11 15:55:30 r, 00.00m,0000593483Hz,0000000000c,0000000.000s, 050.2C,00002191
2021-07-11 16:05:29 r, 00.00m,0000593462Hz,0000000000c,0000000.000s, 050.2C,00002191
2021-07-11 16:15:32 r, 00.00m,0000592923Hz,0000000000c,0000000.000s, 053.5C,00002191
2021-07-11 16:25:30 r, 00.00m,0000592904Hz,0000000000c,0000000.000s, 054.1C,00002191
2021-07-11 16:35:29 r, 00.00m,0000593064Hz,0000000000c,0000000.000s, 053.1C,00002191
2021-07-11 16:45:30 r, 00.00m,0000593052Hz,0000000000c,0000000.000s, 053.5C,00002191
2021-07-11 16:55:30 r, 00.00m,0000592670Hz,0000000000c,0000000.000s, 055.1C,00002191
2021-07-11 17:05:29 r, 00.00m,0000592802Hz,0000000000c,0000000.000s, 055.1C,00002191
2021-07-11 17:15:31 r, 00.00m,0000593073Hz,0000000000c,0000000.000s, 053.5C,00002191
2021-07-11 17:25:30 r, 00.00m,0000592885Hz,0000000000c,0000000.000s, 054.1C,00002191
2021-07-11 17:35:29 r, 00.00m,0000592766Hz,0000000000c,0000000.000s, 055.1C,00002191
2021-07-11 17:45:32 r, 00.00m,0000592749Hz,0000000000c,0000000.000s, 055.1C,00002191
2021-07-11 17:55:30 r, 00.00m,0000592858Hz,0000000000c,0000000.000s, 054.7C,00002191
2021-07-11 18:05:29 r, 00.00m,0000592954Hz,0000000000c,0000000.000s, 054.1C,00002191
2021-07-11 18:15:32 r, 00.00m,0000593087Hz,0000000000c,0000000.000s, 053.8C,00002191
2021-07-11 18:25:30 r, 00.00m,0000593118Hz,0000000000c,0000000.000s, 052.8C,00002191
2021-07-11 18:35:29 r, 00.00m,0000593125Hz,0000000000c,0000000.000s, 052.5C,00002191
2021-07-11 18:45:30 r, 00.00m,0000593357Hz,0000000000c,0000000.000s, 051.8C,00002191
2021-07-11 18:55:31 r, 00.00m,0000593577Hz,0000000000c,0000000.000s, 050.6C,00002191
2021-07-11 19:05:29 r, 00.00m,0000593798Hz,0000000000c,0000000.000s, 048.6C,00002191
2021-07-11 19:15:31 r, 00.00m,0000594004Hz,0000000000c,0000000.000s, 047.3C,00002191
2021-07-11 19:25:30 r, 00.00m,0000594049Hz,0000000000c,0000000.000s, 046.0C,00002191
2021-07-11 19:35:29 r, 00.00m,0000594113Hz,0000000000c,0000000.000s, 045.4C,00002191
2021-07-11 19:45:32 r, 00.00m,0000594322Hz,0000000000c,0000000.000s, 045.1C,00002191
2021-07-11 19:55:30 r, 00.00m,0000594263Hz,0000000000c,0000000.000s, 044.8C,00002191
2021-07-11 20:05:29 r, 00.00m,0000594327Hz,0000000000c,0000000.000s, 044.8C,00002191
2021-07-11 20:15:32 r, 00.00m,0000594389Hz,0000000000c,0000000.000s, 044.1C,00002191
2021-07-11 20:25:30 r, 00.00m,0000594466Hz,0000000000c,0000000.000s, 043.8C,00002191
2021-07-11 20:35:29 r, 00.00m,0000536199Hz,0000000000c,0000000.000s, 042.5C,00002191
2021-07-11 20:45:30 r, 00.00m,0000491282Hz,0000000000c,0000000.000s, 041.9C,00002191
2021-07-11 20:55:31 r, 06.13m,0000299583Hz,0000000000c,0000000.000s, 041.5C,00002191
2021-07-11 21:05:29 r, 06.53m,0000207076Hz,0000000000c,0000000.000s, 040.9C,00002191
2021-07-11 21:15:31 r, 06.95m,0000141047Hz,0000000000c,0000000.000s, 040.2C,00002191
2021-07-11 21:25:30 r, 07.51m,0000084460Hz,0000000000c,0000000.000s, 039.6C,00002191
2021-07-11 21:35:30 r, 08.40m,0000036976Hz,0000000000c,0000000.000s, 039.0C,00002191
2021-07-11 21:45:30 r, 09.52m,0000013167Hz,0000000000c,0000000.000s, 038.3C,00002191
2021-07-11 21:55:32 r, 10.87m,0000003795Hz,0000000000c,0000000.000s, 038.0C,00002191
2021-07-11 22:05:29 r, 12.32m,0000000997Hz,0000000000c,0000000.000s, 037.7C,00002191
2021-07-11 22:15:32 r, 13.81m,0000000253Hz,0000000000c,0000000.000s, 037.7C,00002191
2021-07-11 22:25:30 r, 15.31m,0000000063Hz,0000007274c,0000000.016s, 037.3C,00002191
2021-07-11 22:35:29 r, 16.66m,0000000018Hz,0000025311c,0000000.055s, 037.3C,00002191
2021-07-11 22:45:30 r, 17.76m,0000000006Hz,0000070106c,0000000.152s, 037.0C,00002191
2021-07-11 22:55:31 r, 18.70m,0000000003Hz,0000165445c,0000000.359s, 037.0C,00002191
2021-07-11 23:05:29 r, 19.50m,0000000001Hz,0000345859c,0000000.751s, 036.7C,00002191
2021-07-11 23:15:31 r, 20.12m,0000000000Hz,0000609920c,0000001.324s, 036.4C,00002191
2021-07-11 23:25:30 r, 20.57m,0000000001Hz,0000910304c,0000001.975s, 036.0C,00002191
2021-07-11 23:35:30 r, 20.79m,0000000000Hz,0001114246c,0000002.418s, 035.7C,00002191
2021-07-11 23:45:30 r, 20.94m,0000000000Hz,0001273173c,0000002.763s, 035.1C,00002191
2021-07-11 23:55:32 r, 20.99m,0000000000Hz,0001343415c,0000002.915s, 034.8C,00002191
